RADCAL 1 22698U 93041A 10210.88992389 +.00000000 +00000-0 -56963-5 0 06682 2 22698 089.5430 005.8004 0092003 066.6768 294.4076 14.22844920887245 STRV 1A 1 23125U 94034B 10210.41359932 +.00001201 +00000-0 +30016-3 0 06313 2 23125 007.1294 226.1082 6824885 008.8955 358.8175 02.87282535151102 STRV 1B 1 23126U 94034C 10209.53032596 +.00004473 +00000-0 +60425-3 0 06477 2 23126 007.1349 164.3655 6786321 128.7787 313.8395 02.94169784153565 HELIOS 1A 1 23605U 95033A 09342.63424549 .00000084 00000-0 24979-4 0 7570 2 23605 098.0988 276.1119 0001199 153.0459 207.0793 14.63838992770694 REX 2 1 23814U 96014A 10210.68885584 +.00000047 +00000-0 +15475-4 0 00408 2 23814 090.1585 279.6533 0024755 061.5147 298.8540 14.23898320747532 COSMOS 2346 1 24953U 97052A 10210.89419993 +.00000020 +00000-0 +45766-5 0 08615 2 24953 082.9185 010.5502 0041527 066.3605 294.1908 13.79440470646835 ARGOS 1 25634U 99008A 10210.68850470 +.00000011 +00000-0 +27158-4 0 00707 2 25634 098.9583 258.2938 0009564 222.4372 137.6068 14.18931338591835 HELIOS 1B 1 25977U 99064A 10211.65959043 .00000123 00000-0 24840-4 0 634 2 25977 098.3380 231.8115 0002483 085.0330 275.1156 14.77837916572251 MTI 1 26102U 00014A 10211.62087478 .00000906 00000-0 55745-4 0 9314 2 26102 097.2679 359.7689 0020337 132.6255 289.2879 15.12224346571119 STRV 1C 1 26610U 00072C 10210.95278123 -.00000534 00000-0 00000+0 0 932 2 26610 006.1913 141.4693 7344679 341.1661 001.9956 02.03464340 72125 OFEQ 5 1 27434U 02025A 10211.84056355 .00001861 00000-0 92873-4 0 5007 2 27434 143.4623 221.7953 0024555 190.7628 264.9528 15.06040379454923 HELIOS-2A 1 28492U 04049A 09342.65280378 .00000081 00000-0 24421-4 0 5621 2 28492 098.1032 276.3949 0001504 116.1557 243.9793 14.63856542265662 ESSAIM-1 1 28494U 04049C 09342.61910954 .00000110 00000-0 26767-4 0 6347 2 28494 098.2805 303.9425 0003783 056.4647 303.6900 14.70162313266711 ESSAIM-2 1 28495U 04049D 09342.61861570 .00000112 00000-0 27221-4 0 6581 2 28495 098.2815 304.0628 0004617 050.1900 309.9695 14.70162417266715 ESSAIM-3 1 28496U 04049E 09342.61919833 -.00000015 00000-0 60751-5 0 5878 2 28496 098.2942 308.6273 0009789 059.1704 301.0444 14.70161453266892 ESSAIM-4 1 28497U 04049F 09342.61873613 -.00000018 00000-0 56285-5 0 6448 2 28497 098.2946 308.6727 0012914 054.7758 305.4637 14.70160835266890 MIDSTAR 1 1 30773U 07006B 10210.78848748 -.00000305 00000-0 00000+0 0 9652 2 30773 046.0374 345.2479 0009767 228.7567 131.2628 15.24224069188911 CFESAT 1 30777U 07006F 10210.92058476 +.00000622 +00000-0 +48113-4 0 08879 2 30777 035.4314 150.5976 0002541 167.6535 192.4246 15.03205361186430 NFIRE 1 31140U 07014A 10210.89419733 +.00004247 +00000-0 +72425-4 0 02140 2 31140 048.2250 163.8137 0008540 052.6683 307.5042 15.53494109185914 OFEQ 7 1 31601U 07025A 10211.77034722 .00003049 00000-0 10586-3 0 5403 2 31601 141.7494 034.0032 0067370 179.5272 015.4162 15.21365763174630 SAR LUPE 2 1 31797U 07030A 10211.67851709 .00001085 00000-0 44317-4 0 4436 2 31797 098.1310 063.2765 0010830 231.5148 168.6884 15.26892493171476 SAR LUPE 3 1 32283U 07053A 10211.68893569 .00001712 00000-0 67984-4 0 745 2 32283 098.0920 122.1252 0007846 354.3709 069.8494 15.26909147152988 SAR LUPE 4 1 32750U 08014A 10211.68300847 .00001451 00000-0 57693-4 0 6151 2 32750 098.1645 354.0915 0020551 093.5085 003.8057 15.27044647130436 SAR LUPE 5 1 33244U 08036A 10211.68083149 .00002098 00000-0 82287-4 0 2440 2 33244 098.1192 121.1936 0020437 140.9838 306.4136 15.26898890112676 SPIRALE A 1 33751U 09008C 10210.64806715 -.00000150 00000-0 10000-3 0 2788 2 33751 001.9811 074.2056 7153023 243.4640 029.3345 02.25833645 12028 SPIRALE B 1 33752U 09008D 10210.66816395 -.00000046 00000-0 17223-2 0 2851 2 33752 001.9610 075.0025 7149502 242.1345 030.7975 02.25867062 12032 TACSAT 3 1 35001U 09028A 10211.76251749 .00004454 00000-0 10610-3 0 3468 2 35001 040.4560 312.2919 0022347 329.8640 030.0889 15.42148036 67361